Hlavní strana
METAR-TAF:

METAR-TAF

Letiště :

Macon County Airport

Franklin, Severní Karolína, Spojené státy americké

zeměpisná šířka: 35-13N, zeměpisná délka: 083-25W, výška: 616 m

Aktuální stav počasí

Zpráva byla vytvořena před 11 minutami, v 21:55 UTC
Bezvětří
Teplota 20°C
Vlhkost vzduchu 64%
Tlak 1018 hPa
Viditelnost: 16.1 km
Polojasno ve výšce 4200 ft
Zataženo ve výšce 5000 ft

METAR: K1A5 282155Z AUTO 00000KT 10SM SCT042 OVC050 20/13 A3007 RMK AO2 T01950131

Čas: 17:06 (22:06 UTC)


TAF: chybějící

Stav a předpovědi počasí z více než 4 000 letišť (zprávy METAR a TAF).

Červené a žluté tečky na mapě představují dostupné meteorologické stanice.

Když kurzor umístíte na tečku, zobrazí se název stanice.

Pak kliknutím zobrazíte stav a předpověď počasí.

Chcete-li změnit mapu, kliknutím na zelené tlačítko se znaménkem +mapu přiblížíte, kliknutím na zelené tlačítko se znaménkem – mapu oddálíte a kliknutím na zelené šipky přejdete na sousední mapy.


METAR-TAF: